LHKELDZD

Guest
Details From LHKE - KECSKEMET
To LDZD - ZADAR
Flight Number -
Tags decoded
Created
Modified
Stats Distance 255 nm / 471 km
Max Altitude 0 ft / 0 m
Waypoints 5
Social Downloads 1
Likes 0
Share VATSIM

Download

Looking for another format? Having issues loading an existing format? Contact us
Advertisement - Login to hide

Notes

Requested: LHKE BUG OMA ZDA LDZD

Route

LHKE BUG OMA ZDA LDZD

ID Type Via Altitude Latitude Longitude Leg Dist Tot Dist Heading (true) Name
O LHKE APT - 0 ft / 0 m 46.91750˚ 19.74922˚ - 0 nm - KECSKEMET
BUG NDB - 0 ft / 0 m 46.67747˚ 19.68229˚ 14 nm 14 nm 191° / 191° BUGAC NDB
OMA VOR - 0 ft / 0 m 44.95808˚ 16.80435˚ 158 nm 173 nm 230° / 228° OMARSKA VOR-DME
ZDA VOR - 0 ft / 0 m 44.09532˚ 15.36421˚ 80 nm 253 nm 230° / 229° ZADAR VOR-DME
O LDZD APT - 0 ft / 0 m 44.09723˚ 15.34798˚ 0 nm 254 nm 279° / 279° ZADAR

Altitude Profile

Advertisement - Login to hide

Weather


0- 5 10 15 20 25 30 35+ Temperature / ° C

Clouds and Precipitation
Forecast for 2018-05-26 12:00 UTC. Updated 3 hours ago

Ground ~20,000 ft ~40,000 ft Winds

LHKE

Details ICAO LHKE
Name KECSKEMET
Region Hungary
Timezone Europe/Budapest (UTC+2.0)
Stats Elevation 376 ft / 115 m (AMSL)
Location 46.917500° 19.749222°
Runways 1
Magnetic Variation 4.853° E

METAR

LHKE 261428Z 09004KT 9999 -SHRA FEW045CB SCT050TCU 25/16 Q1020 TEMPO -TSRA RMK BLU

Decode

TAF

Not found

Departure Runways

ID Width Length Bearing (true) Bearing (mag) Surface Threshold Offset Overrun Length
12 197 ft / 60 m 8,178 ft / 2,493 m 123.04° 118.19° Concrete 0 ft / 0 m 200 ft / 61 m
30 197 ft / 60 m 8,178 ft / 2,493 m 303.06° 298.21° Concrete 0 ft / 0 m 200 ft / 61 m

LDZD

Details ICAO LDZD (ZAD)
Name ZADAR
Region Croatia
Timezone Europe/Zagreb (UTC+2.0)
Stats Elevation 289 ft / 88 m (AMSL)
Location 44.097225° 15.347978°
Runways 2
Magnetic Variation 3.750° E

METAR

LDZD 261430Z 30011KT 270V340 9999 FEW040 27/16 Q1018 NOSIG

Decode

TAF

TAF LDZD 261125Z 2612/2712 30008KT 9999 FEW050 TX29/2612Z TN16/2704Z BECMG 2615/2617 06007KT BECMG 2710/2712 30010KT

Decode

Destination Runways

ID Width Length Bearing (true) Bearing (mag) Surface Threshold Offset Overrun Length
04 147 ft / 45 m 6,519 ft / 1,987 m 41.52° 37.77° Asphalt 0 ft / 0 m 0 ft / 0 m
14 147 ft / 45 m 8,159 ft / 2,487 m 135.79° 132.04° Asphalt 0 ft / 0 m 0 ft / 0 m
22 147 ft / 45 m 6,519 ft / 1,987 m 221.53° 217.78° Asphalt 0 ft / 0 m 0 ft / 0 m
32 147 ft / 45 m 8,159 ft / 2,487 m 315.81° 312.06° Asphalt 0 ft / 0 m 0 ft / 0 m

Approach Navaids

Runway Type Ident Frequency Range Bearing (true) Bearing (mag) Slope Elevation
14 Localiser IZD 110.10 MHz 25 nm / 46 km 135.69° 131.94° - 246 ft / 75 m (AMSL)
14 Glidescope IZD 110.10 MHz 25 nm / 46 km 135.69° 131.94° 3.00° 236 ft / 72 m (AMSL)